Platte River (Nebraska), Louisville (06805500)

StateNebraskaLatestUnknown (4520 cfs)
RiverPlatte RiverRatingObservedEstimated
Updated2026-05-05 11:15 (36 minutes ago)Flood - The river is flooding. Obstacles can be treacherous or deadly. The river should be avoided at this stage for casual trips and definitely for the inexperienced. Trips should be attempted only with protective gear and equipment.Flood(none)(none)
Discharge4520 cfs (median: 7540 cfs)High - The river is high and potentially dangerous, especially for the young and / or inexperienced. Normal stream obstacles are sometimes difficult to navigate. Extended distances can be attempted, but canoe travel may not be advisable.High(none)(none)
Height3.14 feetGood - Conditions are ideal for a canoe or kayak. Boats typically will drag on fewer than one-quarter of riffles, if at all, and portages are unnecessary or rare. Normal float lengths can be attempted without a problem.Good(none)(none)
TrendFalling (falling over 24 hours)Low - River is low but can still be floated. Some riffles are okay but most come with significant dragging and might need a portage. Float lengths should be reduced to accommodate low flow, dragging, and portages.Low(none)(none)
USGSExternal icon USGS Site (External icon Duck Duck Go Maps)Poor - River is too low to float comfortably. Most or all riffles will drag or must be portaged and some obstacles (such as slick shelf rock) cause undue problems. Avoid the river at this stage for casual paddling trips.Poor(none)(none)

Trending Data

Plot Image

Trips for Platte River (Nebraska), Louisville (06805500)

DateStartEndDistanceConditionDischargeHeightFishingDetails

A total of 0 rows are displayed.

Condition Descriptions

Fishing Conditions

Fish Species

Notes

Classic Trip List

The classic River Trips application is still available for use. It is updated with the new system using a data retrofit. It is no longer maintained. The original River Trips application is no longer updated (as of 1 Dec 2016) but can be checked for errors or for the condition of the data before it was converted to the new system.

Gauge Data Table

ObservationHeightDischargeMaximum
Discharge
Minimum
Discharge
Mean
Discharge
P05P10P20P25P50
(Median)
P75P80P90P95
2026-05-05 11:15 3.14 4520 42800 (1984) 2430 (1955) 9810 3470 3960 5100 5600 7540 11200 12600 19200 26400
2026-05-05 10:15 3.17 4630 42800 (1984) 2430 (1955) 9810 3470 3960 5100 5600 7540 11200 12600 19200 26400
2026-05-05 09:15 3.15 4550 42800 (1984) 2430 (1955) 9810 3470 3960 5100 5600 7540 11200 12600 19200 26400
2026-05-05 08:15 3.16 4590 42800 (1984) 2430 (1955) 9810 3470 3960 5100 5600 7540 11200 12600 19200 26400
2026-05-05 07:15 3.18 4670 42800 (1984) 2430 (1955) 9810 3470 3960 5100 5600 7540 11200 12600 19200 26400
2026-05-05 06:15 3.17 4630 42800 (1984) 2430 (1955) 9810 3470 3960 5100 5600 7540 11200 12600 19200 26400
2026-05-05 05:15 3.17 4630 42800 (1984) 2430 (1955) 9810 3470 3960 5100 5600 7540 11200 12600 19200 26400
2026-05-05 04:15 3.18 4670 42800 (1984) 2430 (1955) 9810 3470 3960 5100 5600 7540 11200 12600 19200 26400
2026-05-05 03:15 3.18 4670 42800 (1984) 2430 (1955) 9810 3470 3960 5100 5600 7540 11200 12600 19200 26400
2026-05-05 02:15 3.19 4710 42800 (1984) 2430 (1955) 9810 3470 3960 5100 5600 7540 11200 12600 19200 26400
2026-05-05 01:15 3.20 4750 42800 (1984) 2430 (1955) 9810 3470 3960 5100 5600 7540 11200 12600 19200 26400
2026-05-05 00:15 3.19 4710 42800 (1984) 2430 (1955) 9810 3470 3960 5100 5600 7540 11200 12600 19200 26400
2026-05-04 23:15 3.17 4630 42800 (1984) 2430 (1955) 9810 3470 3960 5100 5600 7540 11200 12600 19200 26400
2026-05-04 22:15 3.18 4670 44800 (1984) 2820 (1955) 9470 3470 4120 5000 5710 7740 10800 12400 15500 22100
2026-05-04 21:15 3.17 4630 44800 (1984) 2820 (1955) 9470 3470 4120 5000 5710 7740 10800 12400 15500 22100
2026-05-04 20:15 3.19 4710 44800 (1984) 2820 (1955) 9470 3470 4120 5000 5710 7740 10800 12400 15500 22100
2026-05-04 19:15 3.19 4710 44800 (1984) 2820 (1955) 9470 3470 4120 5000 5710 7740 10800 12400 15500 22100
2026-05-04 18:15 3.19 4710 44800 (1984) 2820 (1955) 9470 3470 4120 5000 5710 7740 10800 12400 15500 22100
2026-05-04 17:15 3.20 4750 44800 (1984) 2820 (1955) 9470 3470 4120 5000 5710 7740 10800 12400 15500 22100
2026-05-04 16:15 3.21 4790 44800 (1984) 2820 (1955) 9470 3470 4120 5000 5710 7740 10800 12400 15500 22100
2026-05-04 15:15 3.22 4830 44800 (1984) 2820 (1955) 9470 3470 4120 5000 5710 7740 10800 12400 15500 22100
2026-05-04 14:15 3.19 4710 44800 (1984) 2820 (1955) 9470 3470 4120 5000 5710 7740 10800 12400 15500 22100
2026-05-04 13:15 3.20 4750 44800 (1984) 2820 (1955) 9470 3470 4120 5000 5710 7740 10800 12400 15500 22100
2026-05-04 12:15 3.22 4830 44800 (1984) 2820 (1955) 9470 3470 4120 5000 5710 7740 10800 12400 15500 22100
2026-05-04 11:15 3.19 4710 44800 (1984) 2820 (1955) 9470 3470 4120 5000 5710 7740 10800 12400 15500 22100
2026-05-04 10:15 3.19 4710 44800 (1984) 2820 (1955) 9470 3470 4120 5000 5710 7740 10800 12400 15500 22100
2026-05-04 09:15 3.20 4750 44800 (1984) 2820 (1955) 9470 3470 4120 5000 5710 7740 10800 12400 15500 22100
2026-05-04 08:15 3.19 4710 44800 (1984) 2820 (1955) 9470 3470 4120 5000 5710 7740 10800 12400 15500 22100
2026-05-04 07:15 3.18 4670 44800 (1984) 2820 (1955) 9470 3470 4120 5000 5710 7740 10800 12400 15500 22100
2026-05-04 06:15 3.17 4630 44800 (1984) 2820 (1955) 9470 3470 4120 5000 5710 7740 10800 12400 15500 22100
2026-05-04 05:15 3.15 4550 44800 (1984) 2820 (1955) 9470 3470 4120 5000 5710 7740 10800 12400 15500 22100
2026-05-04 04:15 3.14 4520 44800 (1984) 2820 (1955) 9470 3470 4120 5000 5710 7740 10800 12400 15500 22100
2026-05-04 03:15 3.13 4480 44800 (1984) 2820 (1955) 9470 3470 4120 5000 5710 7740 10800 12400 15500 22100
2026-05-04 02:15 3.10 4370 44800 (1984) 2820 (1955) 9470 3470 4120 5000 5710 7740 10800 12400 15500 22100
2026-05-04 01:15 3.12 4440 44800 (1984) 2820 (1955) 9470 3470 4120 5000 5710 7740 10800 12400 15500 22100
2026-05-04 00:15 3.10 4370 44800 (1984) 2820 (1955) 9470 3470 4120 5000 5710 7740 10800 12400 15500 22100
2026-05-03 23:15 3.10 4370 44800 (1984) 2820 (1955) 9470 3470 4120 5000 5710 7740 10800 12400 15500 22100
2026-05-03 22:15 3.08 4290 42900 (1984) 2580 (1981) 9560 3190 3830 5150 5420 7740 11600 11900 15500 23900
2026-05-03 21:15 3.09 4330 42900 (1984) 2580 (1981) 9560 3190 3830 5150 5420 7740 11600 11900 15500 23900
2026-05-03 20:15 3.08 4290 42900 (1984) 2580 (1981) 9560 3190 3830 5150 5420 7740 11600 11900 15500 23900
2026-05-03 19:15 3.07 4260 42900 (1984) 2580 (1981) 9560 3190 3830 5150 5420 7740 11600 11900 15500 23900
2026-05-03 18:15 3.07 4260 42900 (1984) 2580 (1981) 9560 3190 3830 5150 5420 7740 11600 11900 15500 23900
2026-05-03 17:15 3.07 4260 42900 (1984) 2580 (1981) 9560 3190 3830 5150 5420 7740 11600 11900 15500 23900
2026-05-03 16:15 3.07 4260 42900 (1984) 2580 (1981) 9560 3190 3830 5150 5420 7740 11600 11900 15500 23900
2026-05-03 15:15 3.07 4260 42900 (1984) 2580 (1981) 9560 3190 3830 5150 5420 7740 11600 11900 15500 23900
2026-05-03 14:15 3.09 4330 42900 (1984) 2580 (1981) 9560 3190 3830 5150 5420 7740 11600 11900 15500 23900
2026-05-03 13:15 3.07 4260 42900 (1984) 2580 (1981) 9560 3190 3830 5150 5420 7740 11600 11900 15500 23900
2026-05-03 12:15 3.08 4290 42900 (1984) 2580 (1981) 9560 3190 3830 5150 5420 7740 11600 11900 15500 23900
2026-05-03 11:15 3.09 4330 42900 (1984) 2580 (1981) 9560 3190 3830 5150 5420 7740 11600 11900 15500 23900
2026-05-03 10:15 3.08 4290 42900 (1984) 2580 (1981) 9560 3190 3830 5150 5420 7740 11600 11900 15500 23900
2026-05-03 09:15 3.10 4370 42900 (1984) 2580 (1981) 9560 3190 3830 5150 5420 7740 11600 11900 15500 23900
2026-05-03 08:15 3.12 4440 42900 (1984) 2580 (1981) 9560 3190 3830 5150 5420 7740 11600 11900 15500 23900
2026-05-03 07:15 3.14 4520 42900 (1984) 2580 (1981) 9560 3190 3830 5150 5420 7740 11600 11900 15500 23900
2026-05-03 06:15 3.15 4550 42900 (1984) 2580 (1981) 9560 3190 3830 5150 5420 7740 11600 11900 15500 23900
2026-05-03 05:15 3.15 4550 42900 (1984) 2580 (1981) 9560 3190 3830 5150 5420 7740 11600 11900 15500 23900
2026-05-03 04:15 3.19 4710 42900 (1984) 2580 (1981) 9560 3190 3830 5150 5420 7740 11600 11900 15500 23900
2026-05-03 03:15 3.21 4790 42900 (1984) 2580 (1981) 9560 3190 3830 5150 5420 7740 11600 11900 15500 23900
2026-05-03 02:15 3.26 4990 42900 (1984) 2580 (1981) 9560 3190 3830 5150 5420 7740 11600 11900 15500 23900
2026-05-03 01:15 3.29 5110 42900 (1984) 2580 (1981) 9560 3190 3830 5150 5420 7740 11600 11900 15500 23900
2026-05-03 00:15 3.33 5280 42900 (1984) 2580 (1981) 9560 3190 3830 5150 5420 7740 11600 11900 15500 23900
2026-05-02 23:15 3.38 5490 42900 (1984) 2580 (1981) 9560 3190 3830 5150 5420 7740 11600 11900 15500 23900
2026-05-02 22:15 3.41 5620 40100 (1984) 2810 (1981) 9650 3310 3940 5120 5950 7910 10900 11900 17000 23400
2026-05-02 21:15 3.45 5800 40100 (1984) 2810 (1981) 9650 3310 3940 5120 5950 7910 10900 11900 17000 23400
2026-05-02 20:15 3.51 6070 40100 (1984) 2810 (1981) 9650 3310 3940 5120 5950 7910 10900 11900 17000 23400
2026-05-02 19:15 3.52 6120 40100 (1984) 2810 (1981) 9650 3310 3940 5120 5950 7910 10900 11900 17000 23400
2026-05-02 18:15 3.55 6260 40100 (1984) 2810 (1981) 9650 3310 3940 5120 5950 7910 10900 11900 17000 23400
2026-05-02 17:15 3.58 6400 40100 (1984) 2810 (1981) 9650 3310 3940 5120 5950 7910 10900 11900 17000 23400
2026-05-02 16:15 3.61 6540 40100 (1984) 2810 (1981) 9650 3310 3940 5120 5950 7910 10900 11900 17000 23400
2026-05-02 15:15 3.59 6450 40100 (1984) 2810 (1981) 9650 3310 3940 5120 5950 7910 10900 11900 17000 23400
2026-05-02 14:15 3.58 6400 40100 (1984) 2810 (1981) 9650 3310 3940 5120 5950 7910 10900 11900 17000 23400
2026-05-02 13:15 3.56 6300 40100 (1984) 2810 (1981) 9650 3310 3940 5120 5950 7910 10900 11900 17000 23400
2026-05-02 12:15 3.52 6120 40100 (1984) 2810 (1981) 9650 3310 3940 5120 5950 7910 10900 11900 17000 23400
2026-05-02 11:15 3.46 5840 40100 (1984) 2810 (1981) 9650 3310 3940 5120 5950 7910 10900 11900 17000 23400
2026-05-02 10:15 3.40 5580 40100 (1984) 2810 (1981) 9650 3310 3940 5120 5950 7910 10900 11900 17000 23400
2026-05-02 09:15 3.34 5320 40100 (1984) 2810 (1981) 9650 3310 3940 5120 5950 7910 10900 11900 17000 23400
2026-05-02 08:15 3.31 5190 40100 (1984) 2810 (1981) 9650 3310 3940 5120 5950 7910 10900 11900 17000 23400
2026-05-02 07:15 3.25 4950 40100 (1984) 2810 (1981) 9650 3310 3940 5120 5950 7910 10900 11900 17000 23400
2026-05-02 06:15 3.26 4990 40100 (1984) 2810 (1981) 9650 3310 3940 5120 5950 7910 10900 11900 17000 23400
2026-05-02 05:15 3.26 4990 40100 (1984) 2810 (1981) 9650 3310 3940 5120 5950 7910 10900 11900 17000 23400
2026-05-02 04:15 3.28 5070 40100 (1984) 2810 (1981) 9650 3310 3940 5120 5950 7910 10900 11900 17000 23400
2026-05-02 03:15 3.29 5110 40100 (1984) 2810 (1981) 9650 3310 3940 5120 5950 7910 10900 11900 17000 23400
2026-05-02 02:15 3.34 5320 40100 (1984) 2810 (1981) 9650 3310 3940 5120 5950 7910 10900 11900 17000 23400
2026-05-02 01:15 3.37 5450 40100 (1984) 2810 (1981) 9650 3310 3940 5120 5950 7910 10900 11900 17000 23400
2026-05-02 00:15 3.42 5670 40100 (1984) 2810 (1981) 9650 3310 3940 5120 5950 7910 10900 11900 17000 23400
2026-05-01 23:15 3.45 5800 40100 (1984) 2810 (1981) 9650 3310 3940 5120 5950 7910 10900 11900 17000 23400
2026-05-01 22:15 3.50 6030 37500 (2016) 2870 (1981) 9270 3440 4060 5510 5830 7580 11100 12100 16300 19100
2026-05-01 21:15 3.54 6210 37500 (2016) 2870 (1981) 9270 3440 4060 5510 5830 7580 11100 12100 16300 19100
2026-05-01 20:15 3.60 6500 37500 (2016) 2870 (1981) 9270 3440 4060 5510 5830 7580 11100 12100 16300 19100
2026-05-01 19:15 3.62 6590 37500 (2016) 2870 (1981) 9270 3440 4060 5510 5830 7580 11100 12100 16300 19100
2026-05-01 18:15 3.63 6640 37500 (2016) 2870 (1981) 9270 3440 4060 5510 5830 7580 11100 12100 16300 19100
2026-05-01 17:15 3.65 6740 37500 (2016) 2870 (1981) 9270 3440 4060 5510 5830 7580 11100 12100 16300 19100
2026-05-01 16:15 3.66 6790 37500 (2016) 2870 (1981) 9270 3440 4060 5510 5830 7580 11100 12100 16300 19100
2026-05-01 15:15 3.64 6690 37500 (2016) 2870 (1981) 9270 3440 4060 5510 5830 7580 11100 12100 16300 19100
2026-05-01 14:15 3.62 6590 37500 (2016) 2870 (1981) 9270 3440 4060 5510 5830 7580 11100 12100 16300 19100
2026-05-01 13:15 3.59 6450 37500 (2016) 2870 (1981) 9270 3440 4060 5510 5830 7580 11100 12100 16300 19100
2026-05-01 12:15 3.51 6070 37500 (2016) 2870 (1981) 9270 3440 4060 5510 5830 7580 11100 12100 16300 19100
2026-05-01 11:15 3.45 5800 37500 (2016) 2870 (1981) 9270 3440 4060 5510 5830 7580 11100 12100 16300 19100
2026-05-01 10:15 3.35 5360 37500 (2016) 2870 (1981) 9270 3440 4060 5510 5830 7580 11100 12100 16300 19100
2026-05-01 09:15 3.30 5150 37500 (2016) 2870 (1981) 9270 3440 4060 5510 5830 7580 11100 12100 16300 19100
2026-05-01 08:15 3.26 4990 37500 (2016) 2870 (1981) 9270 3440 4060 5510 5830 7580 11100 12100 16300 19100
2026-05-01 07:15 3.24 4910 37500 (2016) 2870 (1981) 9270 3440 4060 5510 5830 7580 11100 12100 16300 19100
2026-05-01 06:15 3.23 4870 37500 (2016) 2870 (1981) 9270 3440 4060 5510 5830 7580 11100 12100 16300 19100
2026-05-01 05:15 3.23 4870 37500 (2016) 2870 (1981) 9270 3440 4060 5510 5830 7580 11100 12100 16300 19100
2026-05-01 04:15 3.26 4990 37500 (2016) 2870 (1981) 9270 3440 4060 5510 5830 7580 11100 12100 16300 19100
2026-05-01 03:15 3.28 5070 37500 (2016) 2870 (1981) 9270 3440 4060 5510 5830 7580 11100 12100 16300 19100
2026-05-01 02:15 3.32 5240 37500 (2016) 2870 (1981) 9270 3440 4060 5510 5830 7580 11100 12100 16300 19100
2026-05-01 01:15 3.36 5410 37500 (2016) 2870 (1981) 9270 3440 4060 5510 5830 7580 11100 12100 16300 19100
2026-05-01 00:15 3.41 5620 37500 (2016) 2870 (1981) 9270 3440 4060 5510 5830 7580 11100 12100 16300 19100
2026-04-30 23:15 3.44 5750 37500 (2016) 2870 (1981) 9270 3440 4060 5510 5830 7580 11100 12100 16300 19100
2026-04-30 22:15 3.50 6030 33200 (1984) 2750 (1981) 9010 3550 4310 5300 6160 7730 10200 11700 13500 21800
2026-04-30 21:15 3.54 6210 33200 (1984) 2750 (1981) 9010 3550 4310 5300 6160 7730 10200 11700 13500 21800
2026-04-30 20:15 3.57 6350 33200 (1984) 2750 (1981) 9010 3550 4310 5300 6160 7730 10200 11700 13500 21800
2026-04-30 19:15 3.62 6590 33200 (1984) 2750 (1981) 9010 3550 4310 5300 6160 7730 10200 11700 13500 21800
2026-04-30 18:15 3.64 6690 33200 (1984) 2750 (1981) 9010 3550 4310 5300 6160 7730 10200 11700 13500 21800
2026-04-30 17:15 3.67 6840 33200 (1984) 2750 (1981) 9010 3550 4310 5300 6160 7730 10200 11700 13500 21800
2026-04-30 16:15 3.67 6840 33200 (1984) 2750 (1981) 9010 3550 4310 5300 6160 7730 10200 11700 13500 21800
2026-04-30 15:15 3.65 6740 33200 (1984) 2750 (1981) 9010 3550 4310 5300 6160 7730 10200 11700 13500 21800
2026-04-30 14:15 3.64 6690 33200 (1984) 2750 (1981) 9010 3550 4310 5300 6160 7730 10200 11700 13500 21800
2026-04-30 13:15 3.60 6500 33200 (1984) 2750 (1981) 9010 3550 4310 5300 6160 7730 10200 11700 13500 21800
2026-04-30 12:15 3.54 6210 33200 (1984) 2750 (1981) 9010 3550 4310 5300 6160 7730 10200 11700 13500 21800
2026-04-30 11:15 3.47 5890 33200 (1984) 2750 (1981) 9010 3550 4310 5300 6160 7730 10200 11700 13500 21800
2026-04-30 10:15 3.38 5490 33200 (1984) 2750 (1981) 9010 3550 4310 5300 6160 7730 10200 11700 13500 21800
2026-04-30 09:15 3.30 5150 33200 (1984) 2750 (1981) 9010 3550 4310 5300 6160 7730 10200 11700 13500 21800
2026-04-30 08:15 3.26 4990 33200 (1984) 2750 (1981) 9010 3550 4310 5300 6160 7730 10200 11700 13500 21800
2026-04-30 07:15 3.23 4870 33200 (1984) 2750 (1981) 9010 3550 4310 5300 6160 7730 10200 11700 13500 21800
2026-04-30 06:15 3.21 4790 33200 (1984) 2750 (1981) 9010 3550 4310 5300 6160 7730 10200 11700 13500 21800
2026-04-30 05:15 3.21 4790 33200 (1984) 2750 (1981) 9010 3550 4310 5300 6160 7730 10200 11700 13500 21800
2026-04-30 04:15 3.24 4910 33200 (1984) 2750 (1981) 9010 3550 4310 5300 6160 7730 10200 11700 13500 21800
2026-04-30 03:15 3.26 4990 33200 (1984) 2750 (1981) 9010 3550 4310 5300 6160 7730 10200 11700 13500 21800
2026-04-30 02:15 3.30 5150 33200 (1984) 2750 (1981) 9010 3550 4310 5300 6160 7730 10200 11700 13500 21800
2026-04-30 01:15 3.34 5320 33200 (1984) 2750 (1981) 9010 3550 4310 5300 6160 7730 10200 11700 13500 21800
2026-04-30 00:15 3.38 5490 33200 (1984) 2750 (1981) 9010 3550 4310 5300 6160 7730 10200 11700 13500 21800
2026-04-29 23:15 3.41 5620 33200 (1984) 2750 (1981) 9010 3550 4310 5300 6160 7730 10200 11700 13500 21800
2026-04-29 22:15 3.44 5750 31000 (1986) 3200 (1967) 9290 3810 4350 5230 5860 7380 10700 12400 15300 25900
2026-04-29 21:15 3.46 5840 31000 (1986) 3200 (1967) 9290 3810 4350 5230 5860 7380 10700 12400 15300 25900
2026-04-29 20:15 3.49 5980 31000 (1986) 3200 (1967) 9290 3810 4350 5230 5860 7380 10700 12400 15300 25900
2026-04-29 19:15 3.49 5980 31000 (1986) 3200 (1967) 9290 3810 4350 5230 5860 7380 10700 12400 15300 25900
2026-04-29 18:15 3.48 5930 31000 (1986) 3200 (1967) 9290 3810 4350 5230 5860 7380 10700 12400 15300 25900
2026-04-29 17:15 3.45 5800 31000 (1986) 3200 (1967) 9290 3810 4350 5230 5860 7380 10700 12400 15300 25900
2026-04-29 16:15 3.39 5530 31000 (1986) 3200 (1967) 9290 3810 4350 5230 5860 7380 10700 12400 15300 25900
2026-04-29 15:15 3.33 5280 31000 (1986) 3200 (1967) 9290 3810 4350 5230 5860 7380 10700 12400 15300 25900
2026-04-29 14:15 3.25 4950 31000 (1986) 3200 (1967) 9290 3810 4350 5230 5860 7380 10700 12400 15300 25900
2026-04-29 13:15 3.19 4710 31000 (1986) 3200 (1967) 9290 3810 4350 5230 5860 7380 10700 12400 15300 25900
2026-04-29 12:15 3.15 4550 31000 (1986) 3200 (1967) 9290 3810 4350 5230 5860 7380 10700 12400 15300 25900
2026-04-29 11:15 3.10 4370 31000 (1986) 3200 (1967) 9290 3810 4350 5230 5860 7380 10700 12400 15300 25900
2026-04-29 10:15 3.09 4330 31000 (1986) 3200 (1967) 9290 3810 4350 5230 5860 7380 10700 12400 15300 25900
2026-04-29 09:15 3.08 4290 31000 (1986) 3200 (1967) 9290 3810 4350 5230 5860 7380 10700 12400 15300 25900
2026-04-29 08:15 3.10 4370 31000 (1986) 3200 (1967) 9290 3810 4350 5230 5860 7380 10700 12400 15300 25900
2026-04-29 07:15 3.12 4440 31000 (1986) 3200 (1967) 9290 3810 4350 5230 5860 7380 10700 12400 15300 25900
2026-04-29 06:15 3.14 4520 31000 (1986) 3200 (1967) 9290 3810 4350 5230 5860 7380 10700 12400 15300 25900
2026-04-29 05:15 3.17 4630 31000 (1986) 3200 (1967) 9290 3810 4350 5230 5860 7380 10700 12400 15300 25900
2026-04-29 04:15 3.21 4790 31000 (1986) 3200 (1967) 9290 3810 4350 5230 5860 7380 10700 12400 15300 25900
2026-04-29 03:15 3.25 4950 31000 (1986) 3200 (1967) 9290 3810 4350 5230 5860 7380 10700 12400 15300 25900
2026-04-29 02:15 3.29 5110 31000 (1986) 3200 (1967) 9290 3810 4350 5230 5860 7380 10700 12400 15300 25900
2026-04-29 01:15 3.34 5320 31000 (1986) 3200 (1967) 9290 3810 4350 5230 5860 7380 10700 12400 15300 25900
2026-04-29 00:15 3.39 5530 31000 (1986) 3200 (1967) 9290 3810 4350 5230 5860 7380 10700 12400 15300 25900
2026-04-28 23:15 3.43 5710 31000 (1986) 3200 (1967) 9290 3810 4350 5230 5860 7380 10700 12400 15300 25900
2026-04-28 22:15 3.46 5840 39300 (1986) 3210 (1981) 9780 3710 4490 5250 5730 7630 11100 12000 16800 29700
2026-04-28 21:15 3.50 6030 39300 (1986) 3210 (1981) 9780 3710 4490 5250 5730 7630 11100 12000 16800 29700
2026-04-28 20:15 3.55 6260 39300 (1986) 3210 (1981) 9780 3710 4490 5250 5730 7630 11100 12000 16800 29700
2026-04-28 19:15 3.58 6400 39300 (1986) 3210 (1981) 9780 3710 4490 5250 5730 7630 11100 12000 16800 29700
2026-04-28 18:15 3.59 6450 39300 (1986) 3210 (1981) 9780 3710 4490 5250 5730 7630 11100 12000 16800 29700
2026-04-28 17:15 3.59 6450 39300 (1986) 3210 (1981) 9780 3710 4490 5250 5730 7630 11100 12000 16800 29700
2026-04-28 16:15 3.58 6400 39300 (1986) 3210 (1981) 9780 3710 4490 5250 5730 7630 11100 12000 16800 29700
2026-04-28 15:15 3.56 6300 39300 (1986) 3210 (1981) 9780 3710 4490 5250 5730 7630 11100 12000 16800 29700
2026-04-28 14:15 3.51 6070 39300 (1986) 3210 (1981) 9780 3710 4490 5250 5730 7630 11100 12000 16800 29700
2026-04-28 13:15 3.43 5710 39300 (1986) 3210 (1981) 9780 3710 4490 5250 5730 7630 11100 12000 16800 29700
2026-04-28 12:15 3.35 5360 39300 (1986) 3210 (1981) 9780 3710 4490 5250 5730 7630 11100 12000 16800 29700
2026-04-28 11:15 3.24 4910 39300 (1986) 3210 (1981) 9780 3710 4490 5250 5730 7630 11100 12000 16800 29700
2026-04-28 10:15 3.20 4750 39300 (1986) 3210 (1981) 9780 3710 4490 5250 5730 7630 11100 12000 16800 29700
2026-04-28 09:15 3.17 4630 39300 (1986) 3210 (1981) 9780 3710 4490 5250 5730 7630 11100 12000 16800 29700
2026-04-28 08:15 3.16 4590 39300 (1986) 3210 (1981) 9780 3710 4490 5250 5730 7630 11100 12000 16800 29700
2026-04-28 07:15 3.17 4630 39300 (1986) 3210 (1981) 9780 3710 4490 5250 5730 7630 11100 12000 16800 29700
2026-04-28 06:15 3.20 4750 39300 (1986) 3210 (1981) 9780 3710 4490 5250 5730 7630 11100 12000 16800 29700
2026-04-28 05:15 3.23 4870 39300 (1986) 3210 (1981) 9780 3710 4490 5250 5730 7630 11100 12000 16800 29700
2026-04-28 04:15 3.24 4910 39300 (1986) 3210 (1981) 9780 3710 4490 5250 5730 7630 11100 12000 16800 29700
2026-04-28 03:15 3.29 5110 39300 (1986) 3210 (1981) 9780 3710 4490 5250 5730 7630 11100 12000 16800 29700
2026-04-28 02:15 3.33 5280 39300 (1986) 3210 (1981) 9780 3710 4490 5250 5730 7630 11100 12000 16800 29700
2026-04-28 01:15 3.33 5280 39300 (1986) 3210 (1981) 9780 3710 4490 5250 5730 7630 11100 12000 16800 29700
2026-04-28 00:15 3.35 5360 39300 (1986) 3210 (1981) 9780 3710 4490 5250 5730 7630 11100 12000 16800 29700
2026-04-27 23:15 3.35 5360 39300 (1986) 3210 (1981) 9780 3710 4490 5250 5730 7630 11100 12000 16800 29700

A total of 181 rows are displayed for years 1954 through 2025.